period_start,C,m1,H,J0,J1,J2,J3,J4,J5,JA,JB,JC,JD,JJ,JK,JN,#
2016-07-22 00:01:12,0.01,0.23,0.00,25.47,29.22,31.80,14.27,47.42,1012.71,2031.00,3353.60,3018.78,3423.00,599.95,588.71,31.17,0000 0000 0000 0000 000000
2016-07-22 00:06:14,0.01,0.23,0.00,25.48,29.22,31.80,14.30,47.53,1012.71,2031.00,3353.24,3018.59,3422.98,599.98,588.92,31.22,0000 0000 0000 0000 000000
2016-07-22 00:11:15,0.01,0.23,0.00,25.50,29.22,31.79,14.32,47.41,1012.71,2031.00,3353.04,3018.29,3422.95,600.02,588.66,31.27,0000 0000 0000 0000 000000
2016-07-22 00:16:16,0.01,0.23,0.00,25.50,29.22,31.80,14.28,47.36,1012.71,2031.00,3353.01,3018.09,3422.75,599.89,588.79,31.32,0000 0000 0000 0000 000000
2016-07-22 00:21:17,0.06,0.23,0.00,25.52,29.22,31.81,14.24,47.52,1012.71,2031.00,3352.51,3017.59,3421.81,599.81,588.61,31.37,0000 0000 0000 0000 000000
2016-07-22 00:26:18,0.04,0.24,0.00,25.53,29.22,31.81,14.26,47.39,1012.71,2031.00,3351.21,3016.74,3420.64,600.04,588.76,31.42,0000 0000 0000 0000 000000
2016-07-22 00:31:19,0.02,0.24,0.00,25.54,29.22,31.83,14.31,47.70,1012.71,2030.99,3351.05,3016.38,3420.26,599.98,588.63,31.47,0000 0000 0000 0000 000000
2016-07-22 00:36:21,0.00,0.24,0.00,25.55,29.23,31.83,14.29,47.47,1012.71,2030.99,3351.00,3016.06,3420.04,600.12,588.74,31.52,0000 0000 0000 0000 000000
2016-07-22 00:41:22,0.00,0.24,0.00,25.56,29.23,31.83,14.20,47.54,1012.66,2030.99,3350.98,3016.01,3420.00,599.97,588.52,31.57,0000 0000 0000 0000 000000
2016-07-22 00:46:23,0.04,0.24,0.00,25.58,29.24,31.84,14.28,47.65,1012.54,2030.99,3350.54,3015.76,3419.58,599.97,588.69,31.62,0000 0000 0000 0000 000000
2016-07-22 00:51:25,0.01,0.24,0.00,25.60,29.25,31.85,14.29,47.63,1012.39,2030.99,3350.00,3015.15,3419.02,599.93,588.35,31.67,0000 0000 0000 0000 000000
2016-07-22 00:56:26,0.00,0.24,0.00,25.60,29.25,31.83,14.28,47.61,1012.43,2030.99,3349.99,3015.07,3419.01,600.15,588.46,31.72,0000 0000 0000 0000 000000
2016-07-22 01:01:27,0.00,0.24,0.00,25.61,29.25,31.83,14.25,47.63,1012.38,2030.98,3349.83,3015.01,3418.99,599.92,588.21,31.77,0000 0000 0000 0000 000000
2016-07-22 01:06:28,0.01,0.24,0.00,25.62,29.25,31.85,14.31,47.52,1012.25,2030.99,3349.38,3015.00,3418.97,600.13,588.33,31.82,0000 0000 0000 0000 000000
2016-07-22 01:11:30,0.00,0.24,0.00,25.64,29.26,31.85,14.24,47.33,1012.23,2030.98,3349.30,3015.00,3418.94,599.99,588.22,31.87,0000 0000 0000 0000 000000
2016-07-22 01:16:31,0.01,0.24,0.00,25.65,29.27,31.86,14.25,47.46,1012.23,2030.97,3349.06,3014.99,3418.80,599.74,588.21,31.92,0000 0000 0000 0000 000000
2016-07-22 01:21:32,0.01,0.24,0.00,25.67,29.27,31.88,14.28,47.63,1012.22,2030.97,3349.00,3014.98,3418.21,599.92,588.01,31.97,0000 0000 0000 0000 000000
2016-07-22 01:26:33,0.00,0.24,0.00,25.68,29.27,31.89,14.28,47.52,1012.22,2030.97,3348.99,3014.88,3418.01,600.16,588.32,32.02,0000 0000 0000 0000 000000
2016-07-22 01:31:34,0.01,0.24,0.00,25.70,29.27,31.88,14.27,47.36,1012.22,2030.94,3348.88,3014.43,3418.00,599.89,587.97,32.07,0000 0000 0000 0000 000000
2016-07-22 01:36:35,0.01,0.25,0.00,25.70,29.28,31.90,14.27,47.37,1012.22,2030.90,3348.47,3014.12,3418.00,599.82,587.95,32.13,0000 0000 0000 0000 000000
2016-07-22 01:41:36,0.01,0.25,0.00,25.71,29.30,31.93,14.30,47.31,1012.22,2030.89,3348.07,3014.02,3417.97,600.27,588.31,32.18,0000 0000 0000 0000 000000
2016-07-22 01:46:37,0.01,0.25,0.00,25.72,29.30,31.89,14.26,47.25,1012.22,2030.81,3348.00,3014.00,3417.65,600.20,588.28,32.23,0000 0000 0000 0000 000000
2016-07-22 01:51:38,0.00,0.25,0.00,25.74,29.30,31.91,14.24,47.58,1012.22,2030.85,3347.97,3013.99,3417.31,600.15,588.16,32.28,0000 0000 0000 0000 000000
2016-07-22 01:56:39,-0.01,0.25,0.00,25.75,29.30,31.95,14.29,47.50,1012.22,2030.67,3347.72,3013.98,3417.02,599.82,587.90,32.33,0000 0000 0000 0000 000000
2016-07-22 02:01:41,-0.00,0.25,0.00,25.75,29.32,31.95,14.17,47.21,1012.18,2030.56,3347.17,3013.87,3417.00,599.61,587.60,32.38,0000 0000 0000 0000 000000
2016-07-22 02:06:42,0.02,0.25,0.00,25.76,29.32,31.96,14.28,47.62,1012.17,2030.56,3347.01,3013.52,3417.00,600.18,588.14,32.43,0000 0000 0000 0000 000000
2016-07-22 02:11:43,0.00,0.25,0.00,25.77,29.32,31.93,14.27,47.51,1011.98,2030.44,3347.00,3013.12,3416.93,600.10,587.92,32.48,0000 0000 0000 0000 000000
2016-07-22 02:16:45,-0.01,0.25,0.00,25.78,29.32,31.94,14.28,47.67,1011.78,2030.23,3346.95,3013.01,3416.47,599.94,587.46,32.53,0000 0000 0000 0000 000000
2016-07-22 02:21:46,0.02,0.25,0.00,25.78,29.34,31.94,14.30,47.56,1011.76,2030.25,3346.73,3013.00,3416.12,599.99,587.65,32.58,0000 0000 0000 0000 000000
2016-07-22 02:26:47,-0.01,0.25,0.00,25.79,29.35,31.97,14.19,47.44,1011.78,2030.13,3346.12,3012.99,3416.01,599.65,587.43,32.63,0000 0000 0000 0000 000000
2016-07-22 02:31:48,0.00,0.25,0.00,25.80,29.35,31.98,14.21,47.45,1011.80,2030.08,3346.01,3012.98,3416.00,599.97,587.61,32.68,0000 0000 0000 0000 000000
2016-07-22 02:36:49,-0.00,0.25,0.00,25.80,29.35,31.99,14.26,47.27,1011.92,2030.02,3345.99,3012.78,3415.97,599.87,587.60,32.73,0000 0000 0000 0000 000000
2016-07-22 02:41:51,0.01,0.25,0.00,25.81,29.35,31.99,14.28,47.35,1012.03,2030.04,3345.96,3012.30,3415.84,600.03,587.97,32.78,0000 0000 0000 0000 000000
2016-07-22 02:46:52,0.01,0.25,0.00,25.82,29.36,32.02,14.15,47.35,1012.09,2030.02,3345.74,3012.13,3415.55,599.43,587.24,32.83,0000 0000 0000 0000 000000
2016-07-22 02:51:53,0.01,0.25,0.00,25.83,29.37,32.01,14.26,47.29,1012.00,2030.03,3345.18,3012.04,3415.09,599.90,587.49,32.88,0000 0000 0000 0000 000000
2016-07-22 02:56:54,0.00,0.25,0.00,25.83,29.37,32.04,14.18,47.32,1011.80,2030.02,3345.01,3012.00,3415.01,599.67,587.38,32.93,0000 0000 0000 0000 000000
2016-07-22 03:01:55,-0.00,0.25,0.00,25.85,29.37,32.03,14.30,47.45,1011.76,2030.02,3345.00,3012.00,3415.00,600.02,587.33,32.98,0000 0000 0000 0000 000000
2016-07-22 03:06:56,0.00,0.25,0.00,25.85,29.37,32.04,14.29,47.43,1011.75,2030.01,3344.96,3011.99,3414.99,599.72,587.23,33.04,0000 0000 0000 0000 000000
2016-07-22 03:11:58,0.00,0.25,0.00,25.85,29.37,32.03,14.28,47.42,1011.75,2030.00,3344.71,3011.94,3414.88,599.98,587.59,33.09,0000 0000 0000 0000 000000
2016-07-22 03:16:59,0.04,0.25,0.00,25.87,29.38,32.06,14.39,47.69,1011.74,2030.00,3344.10,3011.43,3414.23,600.33,587.82,33.14,0000 0000 0000 0000 000000
2016-07-22 03:22:00,0.00,0.25,0.00,25.87,29.40,32.08,14.22,47.32,1011.73,2030.00,3344.00,3011.12,3414.05,599.80,587.29,33.19,0000 0000 0000 0000 000000
2016-07-22 03:27:01,0.00,0.25,0.00,25.89,29.40,32.09,14.22,47.48,1011.73,2030.00,3344.00,3011.03,3414.00,599.98,587.37,33.24,0000 0000 0000 0000 000000
2016-07-22 03:32:02,0.00,0.25,0.00,25.90,29.40,32.08,14.29,47.52,1011.73,2030.00,3343.91,3011.00,3414.00,600.05,587.49,33.29,0000 0000 0000 0000 000000
2016-07-22 03:37:03,0.00,0.25,0.00,25.90,29.40,32.05,14.25,47.49,1011.70,2030.00,3343.60,3011.00,3413.97,599.96,587.45,33.34,0000 0000 0000 0000 000000
2016-07-22 03:42:05,0.01,0.25,0.00,25.90,29.40,32.06,14.21,47.49,1011.72,2030.00,3343.12,3010.98,3413.82,600.10,587.54,33.39,0000 0000 0000 0000 000000
2016-07-22 03:47:06,0.01,0.25,0.00,25.92,29.42,32.06,14.31,47.35,1011.71,2030.00,3343.00,3010.93,3413.25,600.28,587.61,33.44,0000 0000 0000 0000 000000
2016-07-22 03:52:07,0.01,0.25,0.00,25.92,29.42,32.07,14.18,47.48,1011.49,2030.00,3342.98,3010.52,3413.03,600.12,587.35,33.49,0000 0000 0000 0000 000000
2016-07-22 03:57:09,0.01,0.25,0.00,25.94,29.42,32.09,14.23,47.44,1011.32,2030.00,3342.93,3010.18,3413.01,599.85,586.90,33.54,0000 0000 0000 0000 000000
2016-07-22 04:02:10,0.01,0.26,0.00,25.94,29.43,32.05,14.31,47.37,1011.37,2030.00,3342.23,3010.05,3413.00,599.86,586.86,33.59,0000 0000 0000 0000 000000
2016-07-22 04:07:11,0.00,0.26,0.00,25.95,29.45,32.11,14.24,47.39,1011.56,2030.00,3342.01,3010.00,3412.94,599.97,587.10,33.64,0000 0000 0000 0000 000000
2016-07-22 04:12:12,0.01,0.26,0.00,25.96,29.45,32.07,14.21,47.45,1011.59,2030.00,3341.99,3009.99,3412.57,599.87,587.09,33.69,0000 0000 0000 0000 000000
2016-07-22 04:17:13,0.01,0.26,0.00,25.98,29.46,32.09,14.29,47.27,1011.53,2029.99,3341.90,3009.91,3412.03,599.79,586.96,33.74,0000 0000 0000 0000 000000
2016-07-22 04:22:15,0.02,0.26,0.00,26.00,29.47,32.12,14.26,47.52,1011.56,2029.99,3341.37,3009.44,3412.00,599.82,587.11,33.79,0000 0000 0000 0000 000000
2016-07-22 04:27:16,0.01,0.26,0.00,26.01,29.48,32.11,14.18,47.54,1011.35,2029.99,3341.03,3009.06,3411.99,599.79,586.78,33.84,0000 0000 0000 0000 000000
2016-07-22 04:32:17,0.00,0.26,0.00,26.01,29.50,32.17,14.25,47.48,1011.32,2029.99,3340.99,3009.00,3411.67,599.81,586.83,33.89,0000 0000 0000 0000 000000
2016-07-22 04:37:19,0.01,0.26,0.00,26.03,29.51,32.18,14.18,47.49,1011.29,2029.98,3340.87,3008.98,3411.06,599.62,586.58,33.94,0000 0000 0000 0000 000000
2016-07-22 04:42:20,0.01,0.26,0.00,26.05,29.52,32.17,14.13,47.51,1011.25,2029.97,3340.26,3008.92,3411.00,599.90,586.78,33.99,0000 0000 0000 0000 000000
2016-07-22 04:47:21,0.01,0.26,0.00,26.06,29.54,32.21,14.31,47.57,1011.26,2029.91,3340.00,3008.25,3410.95,600.29,587.09,34.05,0000 0000 0000 0000 000000
2016-07-22 04:52:22,0.01,0.26,0.00,26.06,29.55,32.21,14.19,47.54,1011.26,2029.85,3339.94,3008.01,3410.35,600.02,586.70,34.10,0000 0000 0000 0000 000000
2016-07-22 04:57:24,-0.01,0.26,0.00,26.07,29.57,32.25,14.20,47.35,1011.25,2029.63,3339.33,3008.00,3410.02,599.85,586.65,34.15,0000 0000 0000 0000 000000
2016-07-22 05:02:25,-0.02,0.26,0.00,26.09,29.58,32.22,14.24,47.50,1011.26,2029.40,3339.02,3007.96,3409.99,600.11,587.01,34.20,0000 0000 0000 0000 000000
2016-07-22 05:07:26,-0.00,0.26,0.00,26.11,29.60,32.24,14.21,47.56,1011.26,2029.12,3338.97,3007.50,3409.68,599.77,586.51,34.25,0000 0000 0000 0000 000000
2016-07-22 05:12:27,0.01,0.26,0.00,26.11,29.62,32.27,14.26,47.73,1011.26,2029.06,3338.67,3007.09,3409.12,600.01,586.79,34.30,0000 0000 0000 0000 000000
2016-07-22 05:17:29,0.01,0.26,0.00,26.12,29.62,32.24,14.21,47.48,1011.25,2029.03,3338.06,3007.01,3409.01,599.60,586.39,34.35,0000 0000 0000 0000 000000
2016-07-22 05:22:30,-0.00,0.26,0.00,26.14,29.65,32.28,14.16,47.42,1011.25,2029.01,3337.98,3006.97,3408.92,599.82,586.52,34.40,0000 0000 0000 0000 000000
2016-07-22 05:27:31,0.04,0.26,0.00,26.16,29.66,32.30,14.27,47.76,1011.26,2029.00,3337.39,3006.57,3408.18,600.13,586.70,34.45,0000 0000 0000 0000 000000
2016-07-22 05:32:33,0.00,0.26,0.00,26.18,29.67,32.32,14.22,47.52,1011.25,2029.00,3337.02,3006.18,3408.02,600.18,586.77,34.50,0000 0000 0000 0000 000000
2016-07-22 05:37:34,0.00,0.26,0.00,26.20,29.70,32.31,14.25,47.65,1011.25,2029.00,3337.00,3006.01,3408.00,600.28,586.70,34.55,0000 0000 0000 0000 000000
2016-07-22 05:42:35,0.00,0.26,0.00,26.22,29.71,32.31,14.21,47.73,1011.25,2029.00,3336.97,3006.00,3407.97,599.30,585.77,34.60,0000 0000 0000 0000 000000
2016-07-22 05:47:36,0.02,0.27,0.00,26.22,29.72,32.32,14.18,47.72,1011.25,2029.00,3336.52,3005.98,3407.49,599.73,586.24,34.65,0000 0000 0000 0000 000000
2016-07-22 05:52:38,0.02,0.27,0.00,26.24,29.75,32.33,14.25,47.52,1011.25,2028.99,3336.06,3005.64,3407.05,600.20,586.74,34.70,0000 0000 0000 0000 000000
2016-07-22 05:57:39,0.01,0.27,0.00,26.25,29.76,32.34,14.21,47.48,1011.26,2028.97,3335.99,3005.07,3406.99,599.87,586.20,34.75,0000 0000 0000 0000 000000
2016-07-22 06:02:40,0.01,0.27,0.00,26.27,29.77,32.35,14.15,47.23,1011.26,2028.85,3335.40,3005.00,3406.64,599.94,586.37,34.80,0000 0000 0000 0000 000000
2016-07-22 06:07:42,-0.02,0.27,0.00,26.28,29.79,32.37,14.23,47.69,1011.26,2028.54,3335.01,3004.94,3406.06,599.95,586.28,34.85,0000 0000 0000 0000 000000
2016-07-22 06:12:43,-0.01,0.27,0.00,26.31,29.81,32.38,14.19,47.39,1011.27,2028.18,3334.95,3004.25,3405.98,599.85,586.16,34.90,0000 0000 0000 0000 000000
2016-07-22 06:17:45,0.02,0.27,0.00,26.34,29.83,32.38,14.18,47.44,1011.26,2028.03,3334.28,3004.00,3405.48,599.79,586.27,34.96,0000 0000 0000 0000 000000
2016-07-22 06:22:46,0.00,0.27,0.00,26.35,29.85,32.41,14.26,47.51,1011.26,2028.02,3334.00,3003.99,3405.03,599.97,586.12,35.01,0000 0000 0000 0000 000000
2016-07-22 06:27:47,0.00,0.27,0.00,26.35,29.87,32.45,14.21,47.59,1011.25,2028.00,3333.94,3003.88,3405.00,599.82,586.10,35.06,0000 0000 0000 0000 000000
2016-07-22 06:32:49,0.02,0.27,0.00,26.38,29.89,32.44,14.12,47.50,1011.25,2028.00,3333.52,3003.38,3404.95,599.77,585.90,35.11,0000 0000 0000 0000 000000
2016-07-22 06:37:50,0.02,0.27,0.00,26.39,29.91,32.43,14.25,47.56,1011.26,2028.00,3333.03,3003.02,3404.36,600.13,586.28,35.16,0000 0000 0000 0000 000000
2016-07-22 06:42:51,0.00,0.27,0.00,26.40,29.92,32.45,14.20,47.29,1011.29,2028.00,3332.98,3003.00,3404.02,599.64,585.82,35.21,0000 0000 0000 0000 000000
2016-07-22 06:47:52,0.01,0.27,0.00,26.42,29.95,32.47,14.20,47.31,1011.38,2027.98,3332.48,3002.93,3403.99,599.99,586.08,35.26,0000 0000 0000 0000 000000
2016-07-22 06:52:54,0.01,0.27,0.00,26.43,29.96,32.48,14.20,47.48,1011.28,2027.96,3332.05,3002.52,3403.86,600.08,586.24,35.31,0000 0000 0000 0000 000000
2016-07-22 06:57:55,0.01,0.27,0.00,26.43,29.98,32.52,14.19,47.31,1011.26,2027.91,3332.00,3002.07,3403.25,600.34,586.36,35.36,0000 0000 0000 0000 000000
2016-07-22 07:02:56,-0.02,0.27,0.00,26.46,30.00,32.54,14.14,47.49,1011.28,2027.71,3331.96,3002.01,3403.01,599.87,585.98,35.41,0000 0000 0000 0000 000000
2016-07-22 07:07:57,-0.02,0.27,0.00,26.48,30.02,32.53,14.22,47.39,1011.37,2027.25,3331.30,3001.97,3402.98,600.03,586.14,35.46,0000 0000 0000 0000 000000
2016-07-22 07:12:59,-0.00,0.27,0.00,26.50,30.04,32.53,14.29,47.42,1011.44,2027.08,3331.01,3001.86,3402.84,599.83,585.85,35.51,0000 0000 0000 0000 000000
2016-07-22 07:18:00,0.02,0.27,0.00,26.52,30.06,32.57,14.26,47.57,1011.45,2027.05,3331.00,3001.45,3402.30,600.26,586.21,35.56,0000 0000 0000 0000 000000
2016-07-22 07:23:01,0.01,0.27,0.00,26.56,30.08,32.60,14.21,47.78,1011.46,2027.03,3330.84,3001.05,3402.01,600.11,586.07,35.61,0000 0000 0000 0000 000000
2016-07-22 07:28:03,0.00,0.27,0.00,26.61,30.10,32.60,14.23,47.89,1011.35,2027.00,3330.29,3001.00,3401.99,600.41,586.29,35.66,0000 0000 0000 0000 000000
2016-07-22 07:33:04,0.00,0.27,0.00,26.62,30.12,32.59,14.17,47.70,1011.44,2027.00,3330.06,3000.99,3401.88,599.78,585.66,35.71,0000 0000 0000 0000 000000
2016-07-22 07:38:05,0.01,0.27,0.00,26.65,30.15,32.61,14.20,47.45,1011.49,2027.00,3330.00,3000.89,3401.31,600.16,586.02,35.76,0000 0000 0000 0000 000000
2016-07-22 07:43:07,0.02,0.27,0.00,26.70,30.17,32.64,14.28,47.60,1011.56,2026.98,3329.66,3000.26,3401.01,600.34,586.08,35.81,0000 0000 0000 0000 000000
2016-07-22 07:48:08,0.01,0.27,0.00,26.73,30.19,32.66,14.17,47.52,1011.53,2026.90,3329.06,3000.01,3400.97,600.10,585.94,35.86,0000 0000 0000 0000 000000
2016-07-22 07:53:09,0.01,0.27,0.00,26.76,30.21,32.69,14.24,47.63,1011.54,2026.84,3328.99,2999.99,3400.57,600.04,585.72,35.92,0000 0000 0000 0000 000000
2016-07-22 07:58:11,-0.04,0.27,0.00,26.79,30.23,32.68,14.26,47.64,1011.64,2026.42,3328.72,2999.87,3400.04,600.01,585.56,35.97,0000 0000 0000 0000 000000
2016-07-22 08:03:12,0.01,0.27,0.00,26.82,30.25,32.72,14.17,47.26,1011.68,2026.24,3328.10,2999.39,3400.00,599.92,585.45,36.02,0000 0000 0000 0000 000000
2016-07-22 08:08:13,-0.00,0.27,0.00,26.85,30.28,32.73,14.28,47.44,1011.68,2026.04,3327.98,2999.01,3399.69,600.16,585.68,36.07,0000 0000 0000 0000 000000
2016-07-22 08:13:15,0.02,0.27,0.00,26.89,30.30,32.75,14.10,47.38,1011.63,2026.01,3327.38,2998.96,3399.09,599.79,585.29,36.12,0000 0000 0000 0000 000000
2016-07-22 08:18:16,0.02,0.28,0.00,26.91,30.32,32.77,14.19,47.56,1011.69,2026.00,3327.01,2998.45,3398.98,599.90,585.31,36.17,0000 0000 0000 0000 000000
2016-07-22 08:23:17,0.01,0.28,0.00,26.93,30.35,32.78,14.16,47.41,1011.70,2026.00,3326.99,2998.01,3398.69,600.10,585.48,36.22,0000 0000 0000 0000 000000
2016-07-22 08:28:19,0.01,0.28,0.00,26.95,30.37,32.83,14.19,47.46,1011.69,2025.98,3326.80,2998.00,3398.14,599.98,585.35,36.27,0000 0000 0000 0000 000000
2016-07-22 08:33:20,0.01,0.28,0.00,26.97,30.39,32.85,14.23,47.37,1011.72,2025.96,3326.12,2997.98,3398.00,600.51,585.79,36.32,0000 0000 0000 0000 000000
2016-07-22 08:38:21,-0.01,0.28,0.00,26.99,30.41,32.84,14.23,47.43,1011.72,2025.79,3326.01,2997.77,3397.96,599.90,585.17,36.37,0000 0000 0000 0000 000000
2016-07-22 08:43:22,-0.01,0.28,0.00,27.01,30.43,32.87,14.20,47.33,1011.73,2025.40,3325.95,2997.14,3397.50,599.88,585.15,36.42,0000 0000 0000 0000 000000
2016-07-22 08:48:24,0.00,0.28,0.00,27.02,30.45,32.89,14.21,47.48,1011.69,2025.12,3325.29,2997.01,3397.03,599.94,585.01,36.47,0000 0000 0000 0000 000000
2016-07-22 08:53:25,-0.00,0.28,0.00,27.04,30.47,32.93,14.23,47.83,1011.69,2025.02,3325.00,2996.99,3396.99,599.77,585.01,36.52,0000 0000 0000 0000 000000
2016-07-22 08:58:27,0.01,0.28,0.00,27.08,30.49,32.94,14.17,47.60,1011.71,2025.01,3324.95,2996.80,3396.80,599.94,585.04,36.57,0000 0000 0000 0000 000000
2016-07-22 09:03:28,0.03,0.28,0.00,27.10,30.51,32.97,14.14,47.54,1011.72,2025.00,3324.31,2996.14,3396.10,599.73,584.76,36.62,0000 0000 0000 0000 000000
2016-07-22 09:08:29,0.00,0.28,0.00,27.10,30.53,33.00,14.17,47.58,1011.73,2025.00,3324.00,2996.00,3396.00,599.98,585.01,36.67,0000 0000 0000 0000 000000
2016-07-22 09:13:30,0.00,0.28,0.00,27.12,30.55,33.00,14.15,47.46,1011.73,2025.00,3324.00,2996.00,3396.00,599.56,584.56,36.72,0000 0000 0000 0000 000000
2016-07-22 09:18:31,0.00,0.28,0.00,27.13,30.57,33.02,14.17,47.44,1011.73,2025.00,3323.95,2995.99,3395.93,599.85,584.88,36.77,0000 0000 0000 0000 000000
2016-07-22 09:23:33,0.02,0.28,0.00,27.14,30.59,33.04,14.26,47.44,1011.73,2024.99,3323.32,2995.95,3395.46,600.25,585.22,36.82,0000 0000 0000 0000 000000
2016-07-22 09:28:34,0.02,0.28,0.00,27.16,30.61,33.07,14.16,47.42,1011.73,2024.95,3323.02,2995.43,3395.05,600.17,584.96,36.88,0000 0000 0000 0000 000000
2016-07-22 09:33:36,0.00,0.28,0.00,27.16,30.62,33.10,14.18,47.33,1011.73,2024.89,3322.98,2995.03,3395.00,600.03,585.02,36.93,0000 0000 0000 0000 000000
2016-07-22 09:38:36,-0.01,0.28,0.00,27.16,30.65,33.10,14.16,47.47,1011.73,2024.67,3322.58,2995.00,3394.95,600.11,585.06,36.98,0000 0000 0000 0000 000000
2016-07-22 09:43:38,-0.03,0.28,0.00,27.18,30.66,33.13,14.23,47.34,1011.73,2024.22,3322.04,2994.98,3394.37,600.55,585.44,37.03,0000 0000 0000 0000 000000
2016-07-22 09:48:39,0.01,0.28,0.00,27.17,30.67,33.16,14.22,47.36,1011.72,2024.10,3322.00,2994.72,3394.02,600.18,585.08,37.08,0000 0000 0000 0000 000000
2016-07-22 09:53:40,0.01,0.28,0.00,27.18,30.70,33.13,14.11,47.35,1011.70,2024.04,3321.70,2994.22,3394.00,599.80,584.82,37.13,0000 0000 0000 0000 000000
2016-07-22 09:58:41,0.00,0.28,0.00,27.19,30.70,33.18,14.15,47.27,1011.65,2024.02,3321.16,2994.01,3393.98,599.76,584.62,37.18,0000 0000 0000 0000 000000
2016-07-22 10:03:42,0.00,0.28,0.00,27.19,30.72,33.21,14.29,47.54,1011.65,2024.00,3321.01,2994.00,3393.70,600.33,585.20,37.23,0000 0000 0000 0000 000000
2016-07-22 10:08:44,0.00,0.28,0.00,27.19,30.73,33.21,14.23,47.63,1011.65,2024.00,3321.00,2993.99,3393.09,599.93,584.93,37.28,0000 0000 0000 0000 000000
2016-07-22 10:13:45,0.00,0.28,0.00,27.20,30.75,33.25,14.14,47.27,1011.71,2024.00,3320.94,2993.96,3393.01,600.11,584.80,37.33,0000 0000 0000 0000 000000
2016-07-22 10:18:46,0.01,0.28,0.00,27.21,30.76,33.25,14.21,47.48,1011.73,2024.00,3320.43,2993.79,3393.00,600.09,584.93,37.38,0000 0000 0000 0000 000000
2016-07-22 10:23:47,0.02,0.28,0.00,27.21,30.77,33.29,14.18,47.46,1011.73,2024.00,3320.05,2993.30,3392.98,599.91,584.76,37.43,0000 0000 0000 0000 000000
2016-07-22 10:28:49,0.01,0.28,0.00,27.20,30.78,33.31,14.21,47.54,1011.73,2024.00,3319.99,2993.02,3392.53,600.01,584.82,37.48,0000 0000 0000 0000 000000
2016-07-22 10:33:50,0.00,0.28,0.00,27.22,30.80,33.33,14.26,47.63,1011.73,2023.99,3319.90,2993.00,3392.07,600.15,584.94,37.53,0000 0000 0000 0000 000000
2016-07-22 10:38:51,0.00,0.29,0.00,27.22,30.80,33.34,14.22,47.60,1011.73,2023.98,3319.62,2993.00,3392.02,599.98,584.87,37.58,0000 0000 0000 0000 000000
2016-07-22 10:43:52,0.05,0.29,0.00,27.23,30.82,33.35,14.26,47.47,1011.73,2023.98,3318.82,2992.28,3391.32,600.54,585.35,37.63,0000 0000 0000 0000 000000
2016-07-22 10:48:53,0.01,0.29,0.00,27.21,30.82,33.38,14.23,47.39,1011.73,2023.98,3318.12,2992.00,3391.00,600.08,584.91,37.68,0000 0000 0000 0000 000000
2016-07-22 10:53:54,-0.00,0.29,0.00,27.22,30.83,33.41,14.24,47.38,1011.73,2023.93,3318.01,2991.98,3391.00,599.90,584.74,37.73,0000 0000 0000 0000 000000
2016-07-22 10:58:56,0.00,0.29,0.00,27.22,30.85,33.41,14.17,47.36,1011.73,2023.93,3318.00,2991.82,3390.98,600.07,585.05,37.78,0000 0000 0000 0000 000000
2016-07-22 11:03:57,0.01,0.29,0.00,27.20,30.85,33.44,14.21,47.41,1011.73,2023.84,3317.96,2991.29,3390.75,600.42,585.28,37.84,0000 0000 0000 0000 000000
2016-07-22 11:08:58,0.00,0.29,0.00,27.21,30.86,33.45,14.18,47.56,1011.73,2023.64,3317.55,2991.03,3390.29,599.94,584.79,37.89,0000 0000 0000 0000 000000
2016-07-22 11:13:59,-0.00,0.29,0.00,27.22,30.87,33.46,14.16,47.42,1011.72,2023.51,3317.11,2991.01,3390.04,599.95,584.79,37.94,0000 0000 0000 0000 000000
2016-07-22 11:19:00,-0.02,0.29,0.00,27.18,30.87,33.49,14.27,47.60,1011.71,2023.34,3317.01,2991.00,3390.00,600.05,584.90,37.99,0000 0000 0000 0000 000000
2016-07-22 11:24:02,0.01,0.29,0.00,27.19,30.88,33.50,14.20,47.33,1011.72,2023.35,3317.00,2990.99,3390.00,600.20,585.12,38.04,0000 0000 0000 0000 000000
2016-07-22 11:29:03,-0.01,0.29,0.00,27.19,30.90,33.51,14.19,47.47,1011.73,2023.18,3316.97,2990.94,3389.98,600.12,584.93,38.09,0000 0000 0000 0000 000000
2016-07-22 11:34:04,0.01,0.29,0.00,27.19,30.90,33.52,14.17,47.31,1011.73,2023.08,3316.78,2990.81,3389.92,599.82,584.72,38.14,0000 0000 0000 0000 000000
2016-07-22 11:39:05,0.01,0.29,0.00,27.19,30.90,33.58,14.21,47.48,1011.73,2023.10,3316.53,2990.70,3389.84,599.90,584.87,38.19,0000 0000 0000 0000 000000
2016-07-22 11:44:06,0.01,0.29,0.00,27.18,30.90,33.56,14.19,47.36,1011.73,2023.12,3316.24,2990.67,3389.75,599.82,584.68,38.24,0000 0000 0000 0000 000000
2016-07-22 11:49:08,0.01,0.29,0.00,27.19,30.92,33.57,14.21,47.55,1011.73,2023.08,3316.04,2990.33,3389.25,600.33,585.27,38.29,0000 0000 0000 0000 000000
2016-07-22 11:54:09,0.00,0.29,0.00,27.18,30.92,33.59,14.24,47.50,1011.72,2023.02,3316.00,2990.03,3389.02,600.04,585.00,38.34,0000 0000 0000 0000 000000
2016-07-22 11:59:11,0.00,0.29,0.00,27.19,30.92,33.64,14.26,47.45,1011.66,2023.01,3315.99,2990.00,3389.00,600.08,584.93,38.39,0000 0000 0000 0000 000000
2016-07-22 12:04:12,-0.00,0.29,0.00,27.17,30.92,33.66,14.22,47.56,1011.42,2023.02,3315.97,2990.00,3389.00,599.99,584.87,38.44,0000 0000 0000 0000 000000
2016-07-22 12:09:13,0.00,0.29,0.00,27.16,30.92,33.66,14.26,47.49,1011.30,2023.01,3315.93,2990.00,3389.00,600.05,584.74,38.49,0000 0000 0000 0000 000000
2016-07-22 12:14:15,0.00,0.29,0.00,27.16,30.92,33.67,14.23,47.42,1011.29,2023.02,3315.64,2990.00,3388.99,600.29,585.08,38.54,0000 0000 0000 0000 000000
2016-07-22 12:19:16,0.01,0.29,0.00,27.15,30.93,33.66,14.18,47.49,1011.37,2023.02,3315.07,2989.98,3388.91,600.44,585.19,38.59,0000 0000 0000 0000 000000
2016-07-22 12:24:17,0.01,0.29,0.00,27.15,30.93,33.68,14.18,47.37,1011.53,2023.01,3315.00,2989.93,3388.53,599.99,584.86,38.64,0000 0000 0000 0000 000000
2016-07-22 12:29:19,0.00,0.29,0.00,27.15,30.93,33.73,14.20,47.26,1011.49,2023.01,3315.00,2989.89,3388.14,599.97,584.83,38.69,0000 0000 0000 0000 000000
2016-07-22 12:34:20,0.01,0.29,0.00,27.12,30.93,33.73,14.24,47.35,1011.54,2023.00,3314.93,2989.59,3388.05,599.90,584.61,38.74,0000 0000 0000 0000 000000
2016-07-22 12:39:21,0.01,0.29,0.00,27.11,30.93,33.71,14.17,47.20,1011.51,2023.01,3314.68,2989.32,3388.01,599.78,584.72,38.79,0000 0000 0000 0000 000000
2016-07-22 12:44:23,0.01,0.29,0.00,27.12,30.93,33.73,14.18,47.33,1011.44,2023.02,3314.31,2989.16,3388.00,599.88,584.83,38.85,0000 0000 0000 0000 000000
2016-07-22 12:49:24,0.02,0.29,0.00,27.11,30.92,33.74,14.22,47.32,1011.43,2023.03,3313.24,2989.00,3387.92,600.05,584.81,38.90,0000 0000 0000 0000 000000
2016-07-22 12:54:25,0.00,0.30,0.00,27.10,30.92,33.75,14.19,47.23,1011.38,2023.02,3313.00,2988.99,3387.55,599.95,584.70,38.95,0000 0000 0000 0000 000000